{"data":{"norad_id":67979,"epoch":"2026-05-24T23:39:33.139872Z","epoch_age_seconds":75627,"freshness":"FRESH","line1":"1 67979U 26038U   26144.98580023  .00019093  00000+0  59224-3 0  9995","line2":"2 67979  97.2829 155.0442 0002566  98.6694 261.4839 15.33442336 14933","mean_motion":15.33442336,"eccentricity":0.0002566,"inclination_deg":97.2829,"raan_deg":155.0442,"arg_perigee_deg":98.6694,"mean_anomaly_deg":261.4839,"bstar":0.00059224,"rev_number":1493,"period_min":93.906367797061,"perigee_km":463.79501031269,"apogee_km":467.30719104596,"semimajor_km":6843.6881006793,"source":"CELESTRAK","updated_at":"2026-05-25T13:38:21.776813Z"}}